MEXSAT 3

Last updated on Fri Dec 19 2025 00:02:50 GMT+0000 (Coordinated Universal Time)

1 39035U 12075B 25352.60257491 .00000000 00000+0 00000+0 0 9994 2 39035 0.0167 37.1964 0001779 189.5483 322.8277 1.00270904 5243
UTC large
Height (km)
Speed (km/s)
/
Latitude / Longitude
Inclination (degrees)
Orbital Period (minutes)
Azimuth
Elevation
Range (km)
Doppler Factor

Next 0 passes for location: London (51.5072 / 0.1276)

Sorry there are no passes over London.